Weather History for Macon, GA

Change the Weather History Date:

Monday, April 15, 2013

  Actual Average Record
Temperature  
Mean Temperature 67 °F 63 °F  
Max Temperature 79 °F 77 °F 91 °F (1972)
Min Temperature 54 °F 50 °F 31 °F (1907)
Degree Days  
Heating Degree Days 0 4  
Month to date heating degree days 81 73  
Since 1 July heating degree days 2193 2270  
Cooling Degree Days 2 2  
Month to date cooling degree days 14 22  
Year to date cooling degree days 36 43  
Growing Degree Days 16 (Base 50)    
Moisture  
Dew Point 58 °F    
Average Humidity 78    
Maximum Humidity 100    
Minimum Humidity 56    
Precipitation  
Precipitation 0.00 in 0.10 in 1.53 in (1934)
Month to date precipitation 4.50 1.65  
Year to date precipitation 23.21 14.80  
Sea Level Pressure  
Sea Level Pressure 29.99 in    
Wind  
Wind Speed 2 mph (East)    
Max Wind Speed 12 mph    
Max Gust Speed 15 mph    
Visibility 6 miles    
Events Fog    
T = Trace of Precipitation, MM = Missing Value Source: NWS Daily Summary

Daily Weather History Graph

Daily Weather History Graph

Search for Another Location

Airport:

Trip Planner

Search our weather history database for the weather conditions in past years. The results will help you decide how hot, cold, wet, or windy it might be!

Date:

Astronomy

Apr. 15, 2013 Rise Set
Actual Time 7:04 AM EDT 8:04 PM EDT
Civil Twilight 6:39 AM EDT 8:30 PM EDT
Nautical Twilight 6:09 AM EDT 9:00 PM EDT
Astronomical Twilight 5:38 AM EDT 9:31 PM EDT
Moon 10:39 AM EDT (4/15) 12:06 AM EDT (4/15)
Length of Visible Light 13h 50m
Length of Day
12h 59m
Waxing Crescent, 24% of the Moon is Illuminated
Apr 15
Waxing Crescent
Apr 18
First Quarter
Apr 25
Full
May 2
Last Quarter
May 9
New

Hourly Weather History & Observations

Time (EDT) Temp. Dew Point Humidity Pressure Visibility Wind Dir Wind Speed Gust Speed Precip Events Conditions
12:11 AM 57.2 °F 57.2 °F 100% 29.96 in 9.0 mi Calm Calm - N/A   Mostly Cloudy
12:51 AM 55.4 °F 55.4 °F 100% 29.95 in 2.5 mi Calm Calm - N/A   Scattered Clouds
12:53 AM 55.0 °F 55.0 °F 100% 29.96 in 2.5 mi Calm Calm - N/A   Scattered Clouds
1:00 AM 55.4 °F 55.4 °F 100% 29.95 in 0.8 mi Calm Calm - N/A   Mostly Cloudy
1:22 AM 55.4 °F 55.4 °F 100% 29.94 in 2.5 mi Calm Calm - N/A   Overcast
1:32 AM 55.4 °F 55.4 °F 100% 29.94 in 0.8 mi Calm Calm - N/A   Overcast
1:53 AM 55.0 °F 55.0 °F 100% 29.92 in 0.5 mi Calm Calm - N/A Fog Fog
2:03 AM 55.4 °F 55.4 °F 100% 29.93 in 0.2 mi Calm Calm - N/A Fog Fog
2:18 AM 55.4 °F 55.4 °F 100% 29.93 in 0.2 mi Calm Calm - N/A Fog Fog
2:30 AM 53.6 °F 53.6 °F 100% 29.93 in 0.2 mi West 3.5 mph - N/A Fog Fog
2:37 AM 55.4 °F 55.4 °F 100% 29.93 in 0.2 mi Calm Calm - N/A Fog Fog
2:42 AM 55.4 °F 55.4 °F 100% 29.93 in 0.5 mi Calm Calm - N/A Fog Fog
2:49 AM 55.4 °F 55.4 °F 100% 29.92 in 0.2 mi Calm Calm - N/A Fog Fog
2:53 AM 55.0 °F 55.0 °F 100% 29.92 in 0.2 mi Calm Calm - N/A Fog Fog
3:48 AM 55.4 °F 55.4 °F 100% 29.93 in 0.2 mi Calm Calm - N/A Fog Fog
3:53 AM 55.0 °F 55.0 °F 100% 29.93 in 0.2 mi Calm Calm - N/A Fog Fog
4:03 AM 55.4 °F 55.4 °F 100% 29.94 in 0.5 mi Calm Calm - N/A Fog Fog
4:14 AM 55.4 °F 55.4 °F 100% 29.94 in 1.0 mi Calm Calm - N/A   Overcast
4:20 AM 55.4 °F 55.4 °F 100% 29.94 in 3.0 mi Calm Calm - N/A   Overcast
4:53 AM 57.0 °F 57.0 °F 100% 29.94 in 3.0 mi Calm Calm - N/A   Overcast
5:12 AM 57.2 °F 57.2 °F 100% 29.95 in 2.5 mi Calm Calm - N/A   Overcast
5:22 AM 57.2 °F 57.2 °F 100% 29.95 in 3.0 mi Calm Calm - N/A   Overcast
5:50 AM 57.2 °F 57.2 °F 100% 29.96 in 4.0 mi Calm Calm - N/A   Overcast
5:53 AM 57.0 °F 57.0 °F 100% 29.95 in 4.0 mi Calm Calm - N/A   Overcast
6:53 AM 57.9 °F 57.9 °F 100% 29.98 in 7.0 mi Calm Calm - N/A   Overcast
7:21 AM 57.2 °F 57.2 °F 100% 29.99 in 1.8 mi Calm Calm - N/A   Overcast
7:30 AM 57.2 °F 57.2 °F 100% 30.00 in 2.0 mi Calm Calm - N/A   Overcast
7:44 AM 57.2 °F 57.2 °F 100% 30.00 in 1.8 mi Calm Calm - N/A   Mostly Cloudy
7:53 AM 57.0 °F 57.0 °F 100% 29.99 in 2.0 mi Calm Calm - N/A   Scattered Clouds
8:39 AM 60.8 °F 59.0 °F 94% 30.02 in 5.0 mi SE 3.5 mph - N/A   Clear
8:53 AM 61.0 °F 59.0 °F 93% 30.01 in 9.0 mi ESE 3.5 mph - N/A   Clear
9:16 AM 62.6 °F 59.0 °F 88% 30.02 in 10.0 mi Calm Calm - N/A   Partly Cloudy
9:53 AM 64.9 °F 60.1 °F 84% 30.03 in 10.0 mi Calm Calm - N/A   Partly Cloudy
10:53 AM 68.0 °F 60.1 °F 76% 30.04 in 10.0 mi Calm Calm - N/A   Partly Cloudy
11:33 AM 69.8 °F 57.2 °F 64% 30.05 in 10.0 mi Calm Calm - N/A   Mostly Cloudy
11:44 AM 69.8 °F 60.8 °F 73% 30.05 in 10.0 mi Variable 3.5 mph - N/A   Scattered Clouds
11:51 AM 71.6 °F 59.0 °F 64% 30.05 in 10.0 mi WNW 4.6 mph - N/A   Mostly Cloudy
11:53 AM 70.0 °F 59.0 °F 68% 30.05 in 10.0 mi NW 4.6 mph - N/A   Mostly Cloudy
12:03 PM 71.6 °F 59.0 °F 64% 30.05 in 10.0 mi NNE 6.9 mph - N/A   Partly Cloudy
12:53 PM 72.0 °F 59.0 °F 64% 30.04 in 10.0 mi Calm Calm - N/A   Overcast
1:53 PM 73.9 °F 61.0 °F 64% 30.04 in 10.0 mi ESE 4.6 mph - N/A   Mostly Cloudy
2:53 PM 77.0 °F 61.0 °F 58% 30.03 in 10.0 mi Calm Calm - N/A   Partly Cloudy
3:53 PM 77.0 °F 60.1 °F 56% 30.02 in 10.0 mi Calm Calm - N/A   Partly Cloudy
4:53 PM 78.1 °F 62.1 °F 58% 30.01 in 10.0 mi East 3.5 mph - N/A   Mostly Cloudy
5:53 PM 77.0 °F 62.1 °F 60% 30.02 in 10.0 mi Calm Calm - N/A   Scattered Clouds
6:53 PM 72.0 °F 63.0 °F 73% 30.03 in 10.0 mi East 8.1 mph - N/A   Overcast
7:53 PM 70.0 °F 62.1 °F 76% 30.05 in 10.0 mi ESE 8.1 mph - N/A   Overcast
8:53 PM 64.9 °F 61.0 °F 87% 30.08 in 10.0 mi East 5.8 mph - N/A   Clear
9:53 PM 63.0 °F 60.1 °F 90% 30.11 in 10.0 mi East 4.6 mph - N/A   Clear
10:53 PM 62.1 °F 60.1 °F 93% 30.12 in 10.0 mi East 3.5 mph - N/A   Clear
11:53 PM 60.1 °F 59.0 °F 96% 30.13 in 9.0 mi Calm Calm - N/A   Clear